Dewpoint
0 1 -0 -3 0 1 1 1 -1 -3 -3 -3 -4 -5 -5 -7 -8 -6 -6 -6 -6 -7 -7 -9 -6 -4 -3 -0 2 8 10 13 13 14 12 12 13 14 13 12 15 14 14 14
6 3 -0 -4 -4 -1 1 1 -0 -3 -4 -4 -4 -4 -5 -5 -6 -6 -6 -6 -5 -5 -6 -5 -4 -2 -2 -0 2 9 11 11 13 13 13 11 14 14 14 15 15 14 13 13
7 5 1 -1 -3 -3 -1 0 -0 -1 -3 -4 -3 -2 -3 -4 -4 -6 -6 -6 -5 -5 -5 -5 -2 -2 -0 0 2 9 11 11 14 13 14 13 14 14 13 14 13 13 13 13
6 4 3 2 1 -3 -3 -4 -2 -2 -1 1 -3 2 -2 -2 -3 -5 -6 -6 -8 -7 -7 -7 -1 -0 -0 -1 -1 3 9 11 13 13 13 13 13 14 13 13 13 13 13 12
6 4 4 4 2 -0 -1 -3 -4 -4 -2 -2 -2 2 -1 -3 -2 -3 -6 -7 -8 -8 -8 -7 -4 0 -1 -1 -0 2 6 8 14 15 15 14 13 14 13 13 13 13 13 12
5 2 3 3 2 1 -1 -1 -2 -2 -2 2 -1 -1 -0 -1 -1 -3 -5 -7 -7 -8 -8 -7 -6 -3 0 1 3 5 8 12 15 15 15 15 13 13 13 13 13 13 12 12
4 3 2 0 2 1 1 1 5 4 2 3 -2 -0 -1 -2 -4 -3 -4 -5 -6 -7 -6 -7 -7 -4 1 3 4 8 9 11 14 15 15 14 14 13 13 13 13 12 10 1
5 6 3 2 2 2 2 2 5 7 5 3 -1 1 -2 -4 -4 -4 -4 -4 -4 -5 -6 -6 -8 -3 2 4 6 9 10 12 13 13 13 12 13 13 13 13 12 10 4 -1
6 5 0 -1 -0 1 2 3 -0 3 1 4 2 0 -3 -5 -4 -3 -4 -4 -4 -4 -5 -4 -2 0 4 6 6 8 11 12 13 13 12 12 13 13 13 10 7 3 -0 -5
5 8 4 2 -1 -0 2 -1 3 5 8 7 3 2 3 0 -1 -2 -3 -4 -4 -5 -5 -4 -3 -2 2 4 5 9 11 13 13 13 12 12 13 12 10 6 2 -3 -5 -8
2 5 5 1 3 2 -0 -0 1 1 6 9 8 4 -1 -0 -1 1 -0 -3 -4 -4 -4 -5 -3 -2 1 5 7 11 12 13 11 10 11 12 12 8 5 2 -3 -5 -10 -15
1 3 5 4 2 1 2 2 2 4 4 6 7 6 -1 -1 -2 -2 -2 -2 -2 -3 -3 -4 -2 0 4 6 10 11 11 10 9 9 11 7 4 1 -0 -3 -6 -13 -16 -16
-0 1 1 0 3 3 4 2 2 3 7 6 7 7 1 -1 -0 -0 -1 -0 -0 -1 -3 -5 -1 1 3 8 11 11 10 9 8 8 8 3 -1 -2 -3 -5 -12 -16 -16 -17
-1 1 0 1 -0 -1 2 1 0 2 6 8 8 5 1 0 0 -1 -1 -1 -1 -1 -1 -4 -1 4 6 9 10 10 9 8 5 4 4 1 -2 -3 -4 -10 -15 -16 -16 -17
1 1 -0 -0 -2 -3 -0 -1 -1 2 3 6 6 7 5 1 0 0 -0 -0 -0 -0 -3 -4 -2 3 8 10 10 10 9 7 4 3 1 -0 -2 -3 -7 -13 -15 -15 -17 -6
1 0 0 1 -0 -1 -2 -0 0 -1 -2 -1 2 4 2 2 2 1 1 -1 -1 -1 -2 -4 -2 3 6 8 9 9 8 6 4 2 1 0 -2 -3 -9 -12 -14 -16 -6 -7
1 2 1 0 -3 -1 2 -3 -4 -4 -4 -2 2 0 -0 2 3 2 1 0 -1 -1 -2 -3 -1 3 5 6 7 7 7 4 2 1 0 -1 -2 -5 -10 -13 -14 -6 -9 -13
-1 0 1 0 -1 1 -5 -9 -8 -6 -7 -8 -6 -5 -4 -2 -2 0 1 0 0 -1 -2 -3 0 2 5 5 6 6 5 2 1 -0 -0 -1 -2 -6 -11 -13 -9 -12 -11 -9
-3 -2 -1 0 -1 -4 -7 -9 -9 -10 -10 -11 -9 -7 -7 -6 -0 1 0 -0 0 -1 -1 -2 -1 2 2 4 5 5 2 1 0 -0 -0 -1 -2 -8 -12 -12 -7 -7 -5 -8
-2 -2 -1 0 0 -0 -7 -10 -10 -10 -4 -9 -8 -7 -5 5 7 2 -0 -1 -2 -2 -2 -2 -0 2 4 5 5 4 2 1 -0 -0 0 -1 -3 -11 -13 -8 -6 -6 -7 -6
-3 -4 0 -0 1 -0 -6 -8 -10 -3 -5 -10 -9 -8 5 7 6 4 3 2 1 -0 -2 -2 -2 2 5 5 5 3 2 1 -0 -0 -0 -1 -8 -11 -10 -9 -8 -6 -5 -6
-2 -2 -2 -2 -0 1 -7 -6 -4 -6 -9 -8 3 4 4 5 5 4 4 3 2 -1 -1 -1 -0 1 4 5 4 2 1 0 -0 -0 -1 -4 -11 -10 -9 -6 -4 -4 -5 -3
-1 -2 -1 -1 -2 -3 -5 -4 -6 -7 -3 -1 2 2 3 3 4 4 4 3 2 1 0 1 1 2 4 4 3 1 1 0 0 -0 -4 -7 -6 -6 -5 -3 -3 -4 -3 -2
-3 -4 -1 1 -1 -3 -3 -3 -5 -6 -5 -1 -0 1 3 4 4 3 3 3 1 2 2 2 2 3 2 1 1 1 0 0 -0 -2 -2 -5 -5 -2 -0 -1 -3 -3 -2 -2
-2 -1 -1 -0 -0 -1 -1 -1 -0 -3 -3 -2 1 1 3 2 2 4 2 3 0 1 3 3 3 2 1 0 0 -0 -0 -1 -3 -4 -2 -0 0 -0 -1 -1 -2 -2 -3 -3
-3 -3 -1 -1 -4 0 1 1 1 2 1 3 1 2 3 3 2 3 2 2 0 1 1 2 2 2 2 1 1 -1 -2 -1 0 0 0 -0 -0 -1 -2 -2 -3 -4 -3 -3
Wind_Speed
16 5 18 27 20 14 14 10 18 17 14 19 19 19 11 16 22 24 31 36 27 25 23 40 32 26 21 25 21 32 38 37 33 30 27 28 28 26 25 25 25 23 24 24
12 21 30 14 18 19 19 20 23 19 16 11 16 17 11 9 8 12 17 18 15 16 24 16 28 30 26 26 24 28 37 35 34 32 29 29 30 29 26 26 25 24 23 22
25 36 15 20 19 20 23 22 23 22 11 16 11 11 9 18 19 21 18 18 18 22 27 25 28 35 34 30 31 31 33 36 38 35 32 31 28 26 24 26 25 25 23 25
25 25 22 22 23 21 23 22 19 21 14 16 11 14 11 9 13 12 19 26 26 33 38 37 30 37 36 33 31 37 34 36 41 38 37 35 37 35 33 31 27 25 29 27
24 19 22 28 28 21 27 11 21 20 16 17 14 6 20 14 16 15 12 26 32 41 43 43 32 40 39 37 37 40 39 40 42 41 39 35 35 34 32 29 28 30 29 27
27 25 19 30 24 25 22 18 23 19 10 12 20 17 25 12 15 12 14 28 29 28 27 36 43 37 44 40 38 39 40 40 42 41 38 34 35 37 35 34 32 33 30 29
19 25 23 22 22 22 23 22 14 12 14 16 20 13 18 11 19 20 19 26 32 28 17 29 27 40 46 42 41 41 41 43 41 38 33 32 34 35 35 35 36 32 29 25
19 19 26 22 24 26 21 24 16 19 17 18 19 17 19 20 18 32 34 32 33 33 38 32 29 39 46 46 43 42 43 42 39 32 28 30 33 35 35 35 36 32 27 24
10 20 17 20 22 19 19 22 23 23 19 8 11 13 17 24 21 18 26 37 39 35 40 21 22 33 42 42 39 42 43 37 33 30 26 32 34 37 35 37 31 29 27 24
10 20 24 18 21 22 23 10 12 6 20 27 20 19 10 19 26 26 22 24 35 38 25 25 30 31 33 38 40 41 40 36 30 29 29 33 37 37 39 34 33 31 28 24
9 5 11 9 8 17 15 20 17 12 11 6 17 20 19 19 14 9 8 27 24 24 26 26 32 34 35 40 42 41 37 33 28 28 30 34 37 37 38 36 33 30 24 20
7 5 6 11 17 16 15 17 17 15 21 5 12 10 9 20 25 19 14 20 25 14 6 6 24 37 41 43 43 41 36 32 28 29 33 36 39 40 37 35 31 26 21 17
5 4 7 7 6 9 7 12 16 17 2 12 17 7 21 18 14 16 16 17 9 10 8 8 13 34 44 47 45 41 37 34 33 34 39 43 41 38 35 32 28 23 17 13
9 6 6 8 13 11 13 19 20 12 5 8 7 19 25 21 19 24 20 28 30 29 23 13 15 33 45 50 48 43 39 36 39 40 41 44 44 40 35 31 26 20 15 10
8 4 10 17 19 19 17 19 19 17 16 9 13 18 26 29 15 13 17 26 27 27 24 18 16 32 41 45 47 46 44 44 45 45 43 42 39 36 33 29 24 19 14 9
7 5 11 13 17 16 19 18 18 21 20 18 20 18 21 26 32 34 33 23 24 27 30 28 21 32 41 49 49 50 49 49 49 49 45 42 41 36 32 27 21 15 11 7
5 4 3 6 12 11 7 10 15 15 14 10 15 18 19 19 25 23 33 37 33 33 33 34 24 36 46 52 53 54 52 51 51 51 47 44 42 38 32 25 20 14 8 6
10 11 7 7 3 13 9 15 23 20 19 16 13 13 16 22 32 32 37 38 39 37 42 40 33 42 48 51 52 52 54 53 53 50 47 43 38 34 29 23 17 11 6 8
18 13 6 7 12 12 16 13 14 12 25 20 18 19 22 32 36 28 29 29 33 25 28 28 29 41 41 48 52 53 52 53 51 48 46 41 36 34 27 21 16 9 8 9
9 11 8 6 7 7 10 18 32 23 18 21 12 19 20 17 11 16 30 23 27 31 24 12 29 43 48 52 54 54 52 54 52 49 45 38 36 32 27 22 15 10 8 9
2 2 11 11 11 10 18 23 23 15 12 23 19 25 6 7 8 28 35 33 29 22 20 22 19 36 50 55 55 56 56 57 55 49 42 37 33 29 24 19 13 9 8 11
12 6 10 7 13 18 23 24 14 17 29 25 11 13 14 13 19 23 33 30 29 32 25 24 25 33 47 55 59 59 58 56 53 48 43 37 31 26 23 15 10 9 10 12
13 12 9 8 7 7 18 14 29 31 29 26 15 19 21 26 18 17 29 29 19 25 23 22 29 38 46 55 61 59 53 51 50 46 42 35 27 23 16 11 10 9 14 15
15 13 11 9 13 20 21 28 35 47 36 37 22 17 22 29 30 16 20 21 8 11 19 30 36 42 41 40 52 57 54 49 49 45 37 34 28 19 15 13 13 17 17 16
7 1 5 16 17 19 24 23 31 38 35 36 34 25 25 24 28 21 20 16 11 14 19 24 33 40 42 42 41 49 48 46 46 42 35 25 21 19 16 14 16 16 16 15
5 15 9 15 19 10 21 29 32 34 30 43 37 30 22 23 23 15 22 23 20 24 29 31 35 37 40 40 45 44 42 39 33 27 22 21 19 17 19 20 20 17 16 15
Wind_Direction
184 191 218 216 219 231 256 253 242 243 232 240 260 268 255 256 234 229 232 244 251 264 285 245 225 220 217 219 226 220 217 211 207 206 209 214 217 217 216 204 203 204 209 216
229 223 225 219 219 229 235 254 265 275 275 245 246 260 263 276 247 232 231 233 263 293 278 235 212 205 210 219 213 214 214 218 211 216 217 223 212 208 214 206 204 200 197 205
214 231 209 220 220 227 229 233 242 249 271 278 269 275 281 279 284 277 274 275 262 268 276 277 214 212 209 209 209 205 210 222 216 218 217 212 208 209 211 208 206 202 199 204
224 238 242 220 232 220 236 232 245 247 238 246 241 271 262 245 264 278 264 264 263 264 263 261 223 209 206 214 210 214 207 220 222 221 221 221 210 208 213 213 210 207 205 207
224 224 224 231 241 222 246 218 244 255 254 263 257 253 252 246 253 249 264 260 255 254 257 256 236 222 217 216 214 214 212 216 221 217 222 221 211 215 216 207 208 209 210 214
241 239 221 229 236 236 256 233 248 258 249 244 243 227 258 237 239 245 247 263 263 258 258 255 251 231 218 209 210 211 211 212 214 216 219 226 217 214 210 211 211 206 208 209
250 246 246 256 240 236 229 230 244 233 234 238 243 238 242 231 227 242 248 251 260 273 288 255 256 224 210 203 208 210 211 213 215 216 219 223 221 219 218 212 206 203 206 207
236 252 232 224 238 234 229 233 229 235 233 234 239 234 232 250 248 263 264 259 263 271 277 286 236 220 200 202 205 211 211 214 216 217 222 222 218 217 217 214 213 205 204 209
253 240 247 229 243 247 228 229 231 242 249 246 232 230 236 247 248 243 244 253 262 265 271 241 195 199 196 198 206 215 214 214 216 222 222 215 216 217 215 202 197 201 207 211
308 264 256 259 250 241 232 238 247 252 233 238 235 231 219 235 243 246 247 247 246 251 261 227 207 201 205 206 210 213 215 213 216 224 219 213 212 207 198 196 196 201 205 210
358 277 259 263 240 247 232 237 235 242 213 221 234 240 222 241 249 233 265 249 243 248 244 219 202 206 207 208 210 205 206 208 214 212 207 204 200 196 197 199 200 203 204 210
42 305 285 256 260 272 286 268 264 235 247 227 231 237 231 229 243 247 254 270 282 275 231 252 219 203 202 208 206 204 207 208 207 201 196 193 190 194 197 201 201 201 204 214
38 15 317 291 219 280 282 296 298 279 22 259 234 253 247 250 265 245 242 271 260 292 272 277 222 208 204 204 202 201 207 208 198 193 191 190 194 195 198 199 198 201 206 217
141 191 207 270 286 279 299 310 309 301 282 269 230 258 253 236 237 253 247 268 275 282 284 264 225 217 207 201 198 198 199 202 191 190 192 194 196 198 201 199 200 202 205 216
149 228 231 250 268 276 274 285 297 291 283 265 272 222 251 258 243 248 248 254 266 273 257 266 241 216 203 199 195 197 198 197 196 192 192 196 200 201 199 199 199 200 203 219
171 240 211 239 262 263 270 282 269 270 267 266 269 256 253 253 252 256 268 268 271 275 275 274 254 220 206 202 199 197 196 198 199 196 196 197 200 200 201 199 198 198 212 235
194 265 206 251 265 266 269 267 270 264 274 281 256 260 273 268 248 246 256 250 248 252 260 265 250 222 209 206 204 199 198 198 197 195 195 197 199 198 198 198 197 201 213 241
239 227 247 259 284 254 254 251 252 271 283 284 286 314 300 275 272 268 241 233 242 255 246 250 229 220 208 206 203 200 197 195 194 192 193 197 196 197 197 196 198 198 215 254
221 225 231 237 243 269 280 251 246 261 277 283 291 298 301 294 298 271 273 253 241 254 267 237 223 213 215 212 204 197 192 191 192 193 194 193 196 197 193 193 197 196 231 257
206 218 229 238 247 233 247 244 241 255 265 262 267 282 282 316 298 270 277 289 267 263 255 273 229 219 209 198 195 191 187 192 190 194 192 191 198 194 192 194 193 204 222 241
225 228 216 240 253 257 247 251 257 248 248 258 239 252 254 278 258 296 299 284 280 248 262 269 256 221 203 198 195 190 190 191 193 192 190 193 190 190 191 192 183 200 221 243
247 235 243 246 254 266 252 273 236 240 257 269 245 261 267 284 305 297 308 307 264 249 248 250 235 213 204 193 191 186 189 191 191 189 187 185 185 188 188 179 184 200 236 224
246 215 240 196 228 260 280 278 276 261 273 262 252 270 283 273 272 286 311 326 255 234 228 222 216 200 188 189 189 181 182 182 182 180 179 175 179 181 173 178 195 229 222 198
256 258 258 289 272 267 270 269 267 270 266 271 263 270 278 273 275 274 303 310 238 218 205 193 182 168 160 166 177 181 176 178 174 172 171 171 165 168 178 193 215 214 198 192
232 344 270 273 271 275 272 292 292 267 273 269 263 253 255 264 264 265 270 278 194 173 164 175 172 165 163 171 167 161 160 161 157 153 154 158 166 174 184 199 199 193 191 194
233 255 246 258 275 296 297 301 290 276 281 283 253 250 262 262 270 262 269 216 185 168 161 163 169 176 170 169 162 154 151 153 146 147 160 166 170 180 188 187 180 179 190 181
Height
1463 1470 1461 1451 1459 1462 1460 1461 1461 1451 1451 1456 1451 1446 1446 1441 1440 1440 1441 1442 1444 1445 1445 1446 1448 1451 1455 1462 1464 1466 1468 1470 1474 1476 1479 1482 1485 1490 1493 1496 1500 1504 1509 1512
1463 1454 1431 1453 1456 1458 1461 1464 1458 1450 1448 1449 1447 1447 1441 1438 1433 1433 1433 1435 1437 1439 1441 1442 1442 1444 1448 1454 1457 1462 1465 1467 1469 1471 1474 1477 1480 1487 1490 1494 1497 1501 1504 1508
1444 1416 1449 1445 1450 1453 1451 1454 1448 1451 1449 1442 1444 1447 1440 1432 1430 1426 1427 1429 1430 1432 1435 1438 1436 1438 1442 1447 1450 1453 1460 1462 1463 1466 1469 1474 1480 1485 1488 1490 1493 1497 1500 1503
1436 1430 1439 1441 1441 1444 1447 1437 1443 1442 1452 1456 1441 1458 1440 1431 1427 1423 1421 1424 1426 1427 1429 1432 1433 1432 1436 1439 1443 1444 1449 1454 1456 1460 1463 1466 1470 1475 1479 1484 1490 1494 1496 1498
1423 1426 1431 1436 1428 1435 1428 1441 1438 1439 1445 1445 1445 1453 1421 1424 1423 1421 1420 1420 1419 1419 1420 1422 1425 1427 1427 1431 1434 1436 1440 1444 1448 1454 1458 1462 1466 1471 1476 1481 1486 1490 1493 1495
1418 1414 1420 1417 1421 1428 1428 1435 1434 1432 1438 1453 1432 1441 1415 1424 1419 1417 1415 1415 1414 1415 1413 1411 1414 1418 1420 1423 1426 1430 1435 1440 1444 1447 1453 1458 1462 1466 1471 1476 1480 1485 1489 1491
1411 1407 1411 1417 1420 1415 1419 1431 1444 1449 1447 1440 1421 1433 1418 1405 1408 1408 1409 1406 1403 1404 1404 1405 1405 1406 1411 1415 1417 1422 1427 1432 1438 1442 1448 1452 1458 1464 1467 1470 1474 1479 1483 1487
1417 1416 1407 1399 1407 1410 1413 1417 1430 1443 1438 1426 1413 1427 1414 1395 1400 1399 1398 1399 1400 1399 1398 1398 1394 1397 1401 1405 1410 1415 1420 1425 1430 1436 1443 1448 1452 1459 1463 1466 1470 1474 1479 1481
1414 1406 1393 1397 1398 1402 1403 1408 1401 1417 1414 1423 1411 1406 1401 1390 1391 1390 1391 1391 1390 1392 1392 1396 1392 1392 1396 1402 1407 1410 1415 1421 1427 1432 1438 1443 1448 1454 1458 1462 1466 1471 1474 1478
1423 1409 1392 1392 1394 1385 1394 1394 1411 1408 1423 1424 1407 1401 1405 1386 1380 1381 1384 1383 1382 1384 1384 1384 1387 1388 1391 1396 1402 1407 1411 1417 1423 1427 1431 1437 1443 1449 1454 1458 1462 1466 1469 1473
1440 1424 1391 1396 1392 1392 1389 1389 1389 1393 1401 1417 1416 1394 1380 1375 1375 1378 1376 1374 1377 1379 1381 1380 1381 1383 1387 1392 1396 1401 1405 1411 1416 1422 1428 1433 1438 1445 1450 1454 1458 1463 1466 1469
1441 1433 1413 1393 1386 1388 1391 1388 1390 1399 1399 1400 1401 1394 1370 1371 1362 1368 1371 1374 1374 1376 1377 1377 1379 1380 1383 1385 1390 1393 1398 1403 1408 1414 1422 1431 1437 1442 1446 1450 1455 1459 1461 1464
1441 1441 1434 1396 1395 1387 1393 1393 1390 1389 1399 1398 1398 1402 1364 1368 1363 1362 1366 1368 1370 1371 1371 1372 1375 1376 1377 1379 1384 1388 1392 1397 1402 1409 1415 1423 1432 1439 1444 1449 1452 1455 1458 1460
1438 1441 1445 1443 1435 1431 1422 1414 1411 1411 1407 1393 1392 1381 1360 1358 1360 1353 1360 1362 1364 1366 1367 1367 1370 1371 1371 1372 1377 1383 1388 1393 1399 1406 1413 1418 1423 1431 1438 1444 1448 1451 1453 1455
1433 1434 1434 1430 1421 1420 1420 1416 1407 1412 1405 1399 1380 1380 1365 1352 1357 1355 1357 1357 1359 1359 1361 1362 1363 1364 1368 1374 1376 1379 1383 1388 1392 1399 1406 1416 1425 1430 1434 1439 1443 1446 1448 1448
1428 1433 1425 1426 1416 1414 1409 1406 1405 1403 1396 1389 1378 1369 1354 1345 1353 1354 1349 1354 1354 1353 1354 1357 1358 1356 1360 1365 1371 1374 1378 1382 1386 1392 1400 1408 1415 1425 1432 1437 1441 1443 1445 1445
1426 1422 1421 1414 1408 1406 1413 1394 1392 1386 1376 1372 1371 1360 1351 1344 1338 1344 1342 1347 1347 1346 1348 1348 1351 1350 1351 1356 1361 1364 1371 1377 1381 1387 1396 1402 1410 1418 1427 1433 1437 1438 1440 1441
1411 1415 1417 1411 1407 1404 1387 1386 1380 1372 1364 1363 1358 1353 1347 1339 1331 1331 1329 1331 1333 1336 1336 1338 1341 1341 1344 1349 1356 1362 1366 1371 1376 1384 1392 1400 1409 1418 1424 1429 1433 1434 1436 1437
1396 1401 1413 1408 1400 1388 1379 1372 1369 1364 1352 1354 1354 1347 1343 1339 1330 1316 1324 1325 1324 1329 1329 1329 1329 1333 1337 1342 1349 1354 1361 1367 1373 1380 1388 1397 1405 1412 1420 1425 1429 1430 1432 1433
1387 1392 1400 1399 1397 1392 1365 1357 1358 1357 1360 1343 1343 1341 1338 1334 1333 1313 1311 1318 1317 1318 1320 1321 1323 1325 1326 1331 1338 1345 1352 1360 1368 1377 1385 1394 1401 1407 1414 1420 1423 1425 1427 1429
1394 1400 1392 1389 1384 1370 1356 1352 1350 1358 1347 1322 1330 1328 1330 1329 1327 1318 1307 1307 1312 1309 1309 1314 1315 1320 1319 1323 1329 1337 1342 1350 1360 1371 1383 1390 1397 1404 1411 1416 1418 1420 1422 1424
1375 1381 1375 1376 1373 1366 1330 1329 1346 1334 1327 1322 1324 1321 1322 1319 1316 1312 1301 1297 1300 1300 1303 1306 1308 1311 1314 1317 1321 1326 1333 1342 1355 1363 1374 1383 1393 1401 1408 1410 1413 1416 1419 1420
1361 1356 1355 1360 1352 1333 1327 1329 1323 1323 1323 1321 1319 1317 1313 1317 1310 1305 1299 1294 1293 1289 1291 1296 1300 1303 1309 1313 1315 1321 1332 1338 1350 1360 1369 1378 1389 1399 1403 1407 1410 1412 1414 1418
1347 1344 1345 1348 1332 1327 1324 1323 1322 1317 1316 1314 1306 1304 1312 1309 1304 1295 1295 1295 1291 1286 1283 1285 1290 1297 1308 1317 1316 1321 1326 1335 1344 1356 1366 1378 1385 1395 1398 1402 1405 1408 1413 1414
1341 1339 1338 1330 1323 1322 1320 1318 1313 1307 1304 1305 1305 1303 1303 1303 1300 1292 1288 1292 1290 1287 1287 1288 1293 1301 1304 1310 1327 1324 1332 1340 1349 1357 1367 1376 1382 1388 1394 1399 1404 1407 1410 1411
1331 1328 1333 1321 1316 1319 1315 1311 1307 1302 1297 1295 1295 1295 1293 1293 1292 1284 1285 1285 1286 1289 1287 1289 1294 1298 1304 1313 1327 1338 1343 1346 1352 1360 1368 1376 1382 1386 1391 1397 1401 1404 1407 1408